User: anonymous   Login
Location: Mt. Chestnut Observatory
(40.9038°N, 79.9956°W)
Time: 04:12:10
(UTC-05:00)
Language:

Cosmos 2034 Rocket - Orbit

View from above orbital plane
View from above orbital plane
View from above satellite
View from above satellite

Ground track
Ground track

The orbit data is extracted from the following two-line orbital elements,

1 20150U 89059B   15027.92048958 -.00000024  00000-0 -40573-4 0  1082
2 20150 082.9397 020.4297 0029029 192.6540 230.6553 13.75594145280605
Epoch (UTC): 27 January 2015 22:05:30
Eccentricity: 0.0029029
inclination: 82.9397°
perigee height: 958 km
apogee height: 1001 km
right ascension of ascending node: 20.4297°
argument of perigee: 192.6540°
revolutions per day: 13.75594145
mean anomaly at epoch: 230.6553°
orbit number at epoch: 28060

The dashed part of the orbit path shows where the satellite is in the earth's shadow,  

DLR